sat.trackr.live / text

‹ back to catalog

STARLINK-3801

NORAD 52356 · 2022-045AB

PAYLOAD ACTIVE UNKNOWN

§ Identity

Operator
Country
US
Launch date
2022-04-29
Launch site
AFETR
Launch vehicle
Mass (kg)
RCS (m²)

Purposes: comms

External: N2YO · Heavens-Above · Gunter

§ Orbital elements

Epoch: 2026-05-25T04:26:38.930784Z

Period
95.44 min
Inclination
53.2142°
Eccentricity
0.0001098
Mean motion
15.08838134 rev/d
Perigee alt
539.0 km
Apogee alt
540.5 km
Semi-major
6,917.9 km
B*
1.2017e-5
RAAN
215.7480°
Arg perigee
84.8953°
Mean anomaly
275.2164°
Rev number
22,733

§ Raw data

STARLINK-38011 52356U 22045AB  26145.18517281 -.00000097  00000+0  12017-4 0  99962 52356  53.2142 215.7480 0001098  84.8953 275.2164 15.08838134227337

JSON: /api/v1/satellites/52356 · /tle

For live sub-satellite position, see the globe view (requires WebGL).

§ Visibility from observer

Set your observer location to see the next 7 days of passes ≥ 10°. The values pass through the URL so the page stays shareable.

No JS? Fill the form by hand. The geolocation button needs JavaScript.